Weather History for Cairns, QU

Change the Weather History Date:

Friday, May 10, 2013

  Actual Average Record
Temperature  
Mean Temperature 76 °F -  
Max Temperature 82 °F 81 °F 86 °F (2002)
Min Temperature 70 °F 67 °F 62 °F (2001)
Cooling Degree Days 11    
Growing Degree Days 26 (Base 50)    
Moisture  
Dew Point 69 °F    
Average Humidity 81    
Maximum Humidity 94    
Minimum Humidity 56    
Precipitation  
Precipitation 0.12 in 0.12 in - ()
Sea Level Pressure  
Sea Level Pressure 30.00 in    
Wind  
Wind Speed 14 mph ()    
Max Wind Speed 26 mph    
Max Gust Speed 30 mph    
Visibility 6.8 miles    
Events Rain    
Averages and records for this station are not official NWS values.
T = Trace of Precipitation, MM = Missing Value Source: Averaged Metar Reports

Daily Weather History Graph

Daily Weather History Graph

Search for Another Location

Airport:

Trip Planner

Search our weather history database for the weather conditions in past years. The results will help you decide how hot, cold, wet, or windy it might be!

Date:

Astronomy

May. 10, 2013 Rise Set
Actual Time 6:31 AM AEST 5:54 PM AEST
Civil Twilight 6:09 AM AEST 6:17 PM AEST
Nautical Twilight 5:43 AM AEST 6:43 PM AEST
Astronomical Twilight 5:17 AM AEST 7:09 PM AEST
Moon 6:27 AM AEST (5/10) 6:05 PM AEST (5/10)
Length of Visible Light 12h 08m
Length of Day
11h 23m
New Moon, 0% of the Moon is Illuminated
May 10
New Moon
May 18
First Quarter
May 25
Full
Jun 1
Last Quarter
Jun 9
New

Hourly Weather History & Observations

Time (AEST) Temp. Heat Index Dew Point Humidity Pressure Visibility Wind Dir Wind Speed Gust Speed Precip Events Conditions
12:00 AM 72 °F - 69 °F 87% 30.04 in - South 13.8 mph - -   Overcast
12:00 AM 71.6 °F - 69.8 °F 94% 30.04 in 6.2 mi South 13.8 mph - N/A   Mostly Cloudy
12:30 AM 71.6 °F - 69.8 °F 94% 30.01 in 6.2 mi South 16.1 mph - N/A   Mostly Cloudy
1:00 AM 72 °F - 69 °F 85% 30.03 in - South 13.8 mph - -  
1:00 AM 71.6 °F - 68.0 °F 88% 30.01 in 6.2 mi South 13.8 mph - N/A   Scattered Clouds
1:30 AM 71.6 °F - 68.0 °F 88% 30.01 in 6.2 mi South 13.8 mph - N/A   Scattered Clouds
2:00 AM 71.6 °F - 68.0 °F 88% 30.01 in 6.2 mi South 15.0 mph - N/A   Mostly Cloudy
2:30 AM 71.6 °F - 68.0 °F 88% 29.98 in 6.2 mi South 12.7 mph - N/A Rain Light Rain Showers
3:00 AM 72 °F - 69 °F 85% 29.99 in - South 16.1 mph - -   Overcast
3:00 AM 71.6 °F - 68.0 °F 88% 29.98 in 6.2 mi South 16.1 mph - N/A Rain Light Rain Showers
3:30 AM 71.6 °F - 68.0 °F 88% 29.98 in 6.2 mi South 13.8 mph - N/A   Mostly Cloudy
4:00 AM 72 °F - 68 °F 84% 30.00 in - South 11.5 mph - -  
4:00 AM 71.6 °F - 68.0 °F 88% 29.98 in 6.2 mi South 11.5 mph - N/A   Overcast
4:30 AM 71.6 °F - 68.0 °F 88% 29.98 in 6.2 mi South 12.7 mph - N/A Rain Light Rain Showers
5:00 AM 71.6 °F - 68.0 °F 88% 29.98 in 6.2 mi South 12.7 mph - N/A   Mostly Cloudy
5:30 AM 71.6 °F - 68.0 °F 88% 29.98 in 6.2 mi South 15.0 mph - N/A   Scattered Clouds
6:00 AM 71 °F - 68 °F 87% 30.00 in 16 mi South 12.7 mph - -   Partly Cloudy
6:00 AM 71.6 °F - 68.0 °F 88% 29.98 in 6.2 mi South 12.7 mph - N/A   Scattered Clouds
6:30 AM 71.6 °F - 68.0 °F 88% 30.01 in 6.2 mi South 15.0 mph - N/A Rain Light Rain Showers
7:00 AM 71.6 °F - 69.8 °F 94% 30.01 in 6.2 mi South 13.8 mph - N/A   Scattered Clouds
7:30 AM 71.6 °F - 69.8 °F 94% 30.01 in 6.2 mi South 11.5 mph - N/A   Scattered Clouds
7:57 AM 73.4 °F - 69.8 °F 88% 30.01 in 6.2 mi South 15.0 mph - N/A Rain Light Rain Showers
8:00 AM 71.6 °F - 69.8 °F 94% 30.01 in 6.2 mi South 15.0 mph - N/A   Scattered Clouds
8:30 AM 73.4 °F - 69.8 °F 88% 30.01 in 6.2 mi South 13.8 mph - N/A Rain Light Rain Showers
9:00 AM 72 °F - 70 °F 91% 30.04 in 12 mi SSE 12.7 mph - - Rain Light Rain Showers
9:00 AM 71.6 °F - 69.8 °F 94% 30.04 in 6.2 mi SSE 12.7 mph - N/A   Scattered Clouds
9:30 AM 73.4 °F - 69.8 °F 88% 30.04 in 6.2 mi South 12.7 mph - N/A   Scattered Clouds
10:00 AM 75 °F - 70 °F 79% 30.05 in - SSE 17.3 mph - -  
10:00 AM 75.2 °F - 69.8 °F 83% 30.04 in 6.2 mi SSE 17.3 mph - N/A   Partly Cloudy
10:30 AM 77.0 °F - 69.8 °F 78% 30.04 in 6.2 mi SSE 18.4 mph - N/A   Partly Cloudy
11:00 AM 78.8 °F - 69.8 °F 74% 30.04 in 6.2 mi SSE 17.3 mph - N/A   Partly Cloudy
11:30 AM 80.6 °F 83.2 °F 68.0 °F 65% 30.04 in 6.2 mi SE 23.0 mph - N/A   Partly Cloudy
12:00 PM 80 °F - 67 °F 57% 30.02 in 19 mi SE 21.9 mph - -   Partly Cloudy
12:00 PM 80.6 °F 83.2 °F 68.0 °F 65% 30.01 in 6.2 mi SE 21.9 mph - N/A   Partly Cloudy
12:30 PM 82.4 °F 85.4 °F 68.0 °F 62% 30.01 in 6.2 mi SE 24.2 mph - N/A   Partly Cloudy
1:00 PM 81 °F - 68 °F 56% 29.99 in - SE 21.9 mph - -  
1:00 PM 80.6 °F 83.2 °F 68.0 °F 65% 29.98 in 6.2 mi SE 21.9 mph - N/A   Partly Cloudy
1:30 PM 80.6 °F 83.2 °F 68.0 °F 65% 29.95 in 6.2 mi SE 23.0 mph - N/A   Partly Cloudy
2:00 PM 80.6 °F 82.7 °F 66.2 °F 61% 29.95 in 6.2 mi SE 26.5 mph - N/A   Partly Cloudy
2:30 PM 80.6 °F 83.2 °F 68.0 °F 65% 29.95 in 6.2 mi SE 23.0 mph - N/A   Partly Cloudy
3:00 PM 80 °F - 68 °F 58% 29.96 in 16 mi SE 21.9 mph - -   Scattered Clouds
3:00 PM 80.6 °F 83.2 °F 68.0 °F 65% 29.95 in 6.2 mi SE 21.9 mph - N/A   Partly Cloudy
3:30 PM 75.2 °F - 69.8 °F 83% 29.95 in 6.2 mi SSE 21.9 mph - N/A   Partly Cloudy
4:00 PM 77 °F - 69 °F 70% 29.97 in - SSE 18.4 mph - -  
4:00 PM 77.0 °F - 69.8 °F 78% 29.95 in 6.2 mi SSE 18.4 mph - N/A   Partly Cloudy
4:30 PM 77.0 °F - 69.8 °F 78% 29.95 in 6.2 mi South 12.7 mph - N/A Rain Light Rain Showers
5:00 PM 75.2 °F - 68.0 °F 78% 29.98 in 6.2 mi SSE 11.5 mph - N/A   Scattered Clouds
5:30 PM 75.2 °F - 68.0 °F 78% 29.98 in 6.2 mi SSE 13.8 mph - N/A   Scattered Clouds
6:00 PM 75.2 °F - 68.0 °F 78% 29.98 in 6.2 mi SSE 15.0 mph - N/A   Partly Cloudy
6:30 PM 73.4 °F - 68.0 °F 83% 29.98 in 6.2 mi SSE 15.0 mph - N/A   Partly Cloudy
7:00 PM 74 °F - 68 °F 75% 29.99 in - South 13.8 mph - -  
7:00 PM 73.4 °F - 68.0 °F 83% 29.98 in 6.2 mi South 13.8 mph - N/A   Partly Cloudy
7:30 PM 73.4 °F - 68.0 °F 83% 29.98 in 6.2 mi South 13.8 mph - N/A   Partly Cloudy
8:00 PM 73.4 °F - 68.0 °F 83% 30.01 in 6.2 mi SSE 16.1 mph - N/A   Partly Cloudy
8:30 PM 73.4 °F - 68.0 °F 83% 30.01 in 6.2 mi SSE 15.0 mph - N/A   Partly Cloudy
9:00 PM 73 °F - 68 °F 80% 30.01 in - South 17.3 mph - -  
9:00 PM 73.4 °F - 68.0 °F 83% 30.01 in 6.2 mi South 17.3 mph - N/A   Scattered Clouds
9:30 PM 73.4 °F - 68.0 °F 83% 30.01 in 6.2 mi South 16.1 mph - N/A   Mostly Cloudy
10:00 PM 73 °F - 69 °F 82% 30.02 in - SE 11.5 mph - -  
10:00 PM 73.4 °F - 68.0 °F 83% 30.01 in 6.2 mi SE 11.5 mph - N/A   Mostly Cloudy
10:30 PM 73.4 °F - 68.0 °F 83% 30.01 in 6.2 mi South 13.8 mph - N/A   Mostly Cloudy
11:00 PM 71.6 °F - 69.8 °F 94% 30.01 in 6.2 mi South 12.7 mph - N/A   Overcast
11:30 PM 71.6 °F - 68.0 °F 88% 30.01 in 2.5 mi South 12.7 mph - N/A Rain Rain Showers
11:38 PM 71.6 °F - 69.8 °F 94% 30.01 in 3.7 mi SSE 18.4 mph 29.9 mph N/A Rain Light Rain Showers